{"data":{"norad_id":69112,"intl_designator":"2026-108J","name":"QIANFAN-153","alt_names":[],"object_type":"PAYLOAD","status":"ACTIVE","operator":null,"country":"PRC","launch_date":"2026-05-17","launch_site_code":"WSC","launch_vehicle":null,"mission":null,"orbit_class":"UNKNOWN","rcs_meters":null,"size_class":null,"mass_kg":null,"dimensions":null,"purposes":[],"wikipedia_slug":null,"has_3d_model":false,"image_url":null,"decayed_at":null,"tle_current":{"epoch":"2026-09-20T04:11:08.763072Z","epoch_age_seconds":51279,"freshness":"FRESH","line1":"1 69112U 26108J   26263.17440698  .00000117  00000+0  16222-3 0  9998","line2":"2 69112  89.0186  12.5272 0002232 103.6801 256.4598 13.51024993 17273","mean_motion":13.51024993,"eccentricity":0.0002232,"inclination_deg":89.0186,"raan_deg":12.5272,"arg_perigee_deg":103.6801,"mean_anomaly_deg":256.4598,"bstar":0.00016222,"rev_number":1727,"period_min":106.58574100857,"perigee_km":1066.8276585462,"apogee_km":1070.1518327254,"semimajor_km":7446.6267456358,"source":"CELESTRAK","updated_at":"2026-09-20T09:00:24.680964Z"}}}